Retour au catalogue

DELTA 1 DEB

ActifSSO
NORAD 12534·DEBRIS·🇺🇸 United States

Lancé Jul 29, 1976 depuis Vandenberg Space Force Base

Loading…

Prochains Passages (prochaines 24 heures)

TLE

FraisSource: Space-Track

Époque: Sep 14, 2026, 11:21 UTC

1 12534U 76077DP  26257.47355564 -.00000152  00000-0 -83311-3 0  9992
2 12534 102.0191 323.5940 0059184 270.6896 221.8381 12.37030301180297

Suivez DELTA 1 DEB en temps réel avec AllMySat

Download on the App Store